[[{"header":{"parameterUnit":"m.s-1","parameterCategory":2,"la1":30.2991,"la2":30.254,"lo1":-89.0895,"lo2":-89.0444,"dy":0.0017,"dx":0.0017,"nx":28,"ny":28,"refTime":"2023-10-03T09:00:00:Z","depth":"0","parameterNumber":2,"parameterNumberName":"U-component_of_CURRENTS"},"data":[0,0,0,0,0,0,0,0,0,0,0,0,0,0,0,0,0,0,0,0,0,0,0,0,0,0,0,0,0,0,0,0,0,0,0,0,0,0,0,0,0,0,0,0,0,0,0,0,0,0,0,0,0,0,0,0,0,0,-0.1434,-0.1435,0,-0.149,-0.1491,-0.1491,-0.1458,-0.1457,-0.1456,-0.1454,-0.1383,-0.1382,-0.1381,0,0,0,0,0,0,0,0,0,0,0,0,0,-0.1303,-0.1305,-0.1434,-0.1435,-0.1436,-0.149,-0.1491,-0.1491,-0.1459,-0.1457,-0.1455,-0.1454,-0.1383,-0.1382,-0.1381,0,0,0,0,0,0,0,0,0,0,0,0,0,-0.1357,-0.1306,-0.1434,-0.1428,-0.1428,-0.149,-0.1491,-0.1492,-0.1459,-0.1457,-0.1455,-0.1453,-0.1383,-0.1382,-0.1381,-0.1417,0,0,-0.1378,-0.1378,0,0,0,0,0,0,0,0,-0.1354,-0.1362,-0.1428,-0.1428,-0.1429,-0.1467,-0.1419,-0.1461,-0.1459,-0.1445,-0.1454,-0.1452,-0.1402,-0.14,-0.1413,-0.1413,-0.141,-0.1378,-0.1378,-0.1377,-0.1377,0,0,0,0,0,0,0,-0.135,-0.1359,-0.1454,-0.1429,-0.143,-0.1424,-0.1429,-0.1427,-0.143,-0.1446,-0.1444,-0.1455,-0.1401,-0.1414,-0.1411,-0.1409,-0.1378,-0.1378,-0.1377,-0.1377,-0.141,-0.1411,0,0,0,0,0,0,-0.1351,-0.1356,-0.1452,-0.1456,-0.1388,-0.1428,-0.1434,-0.1455,-0.1433,-0.1429,-0.1457,-0.1453,-0.1417,-0.1412,-0.1408,-0.1435,-0.1377,-0.1376,-0.1376,-0.1408,-0.141,-0.1412,0,0,0,0,0,0,-0.1348,-0.136,-0.145,-0.1408,-0.1419,-0.1433,-0.1457,-0.1457,-0.1466,-0.1443,-0.1436,-0.1464,-0.1415,-0.1409,-0.1408,-0.1432,-0.1376,-0.1375,-0.1407,-0.1409,-0.1411,-0.1497,0,0,0,0,0,0,-0.1344,-0.1359,-0.1377,-0.1409,-0.1422,-0.1488,-0.1459,-0.146,-0.1477,-0.1473,-0.1447,-0.1439,-0.1413,-0.141,-0.1407,-0.1429,-0.1374,-0.1405,-0.1408,-0.141,-0.1492,-0.1501,-0.151,0,0,0,0,0,-0.134,-0.1373,-0.1378,-0.1389,-0.1446,-0.1489,-0.1496,-0.1496,-0.1479,-0.1493,-0.1474,-0.1439,-0.1424,-0.1411,-0.1407,-0.143,-0.1403,-0.1407,-0.141,-0.1488,-0.15,-0.1509,0,0,0,0,0,0,-0.1326,-0.1375,-0.1379,-0.1426,-0.1456,-0.1484,-0.1502,-0.1504,-0.1505,-0.1493,-0.1461,-0.1453,-0.146,-0.1438,-0.1423,-0.1448,-0.1408,-0.141,-0.1468,-0.1479,-0.1487,-0.1522,-0.1374,0,0,0,0,0,-0.1335,-0.1373,-0.1411,-0.1449,-0.1463,-0.1484,-0.1502,-0.1505,-0.1512,-0.1511,-0.1495,-0.1478,-0.1477,-0.1469,-0.1461,-0.1479,-0.149,-0.149,-0.1499,-0.1507,-0.1533,-0.1557,-0.1571,-0.1422,-0.1422,-0.1422,0,0,-0.1344,-0.1375,-0.1397,-0.1449,-0.1469,-0.1502,-0.1488,-0.152,-0.1553,-0.1503,-0.1529,-0.1509,-0.1489,-0.1506,-0.1507,-0.1486,-0.1562,-0.1511,-0.1518,-0.1541,-0.1562,-0.1577,-0.159,-0.1425,-0.1424,-0.1424,0,0,-0.1368,-0.1403,-0.1433,-0.1455,-0.1491,-0.1521,-0.1531,-0.1561,-0.1576,-0.1602,-0.1578,-0.158,-0.1568,-0.1572,-0.1569,-0.1626,-0.1608,-0.1611,-0.1684,-0.1707,-0.1719,-0.1731,-0.1794,-0.181,-0.1615,-0.1615,-0.1615,0,-0.1371,-0.1423,-0.1448,-0.147,-0.1516,-0.153,-0.158,-0.1598,-0.1624,-0.1663,-0.1613,-0.1637,-0.1607,-0.1657,-0.167,-0.1648,-0.1668,-0.1643,-0.172,-0.1731,-0.1741,-0.1802,-0.1819,-0.1619,-0.1619,-0.1618,-0.1618,0,-0.1411,-0.1446,-0.1466,-0.1514,-0.1567,-0.1611,-0.1654,-0.1697,-0.1715,-0.1735,-0.1781,-0.1744,-0.1764,-0.1748,-0.1722,-0.1788,-0.1785,-0.1728,-0.1695,-0.1761,-0.1822,-0.1838,-0.1626,-0.1624,-0.1623,-0.1622,0,0,-0.1437,-0.1488,-0.1493,-0.1552,-0.1603,-0.1676,-0.1735,-0.1834,-0.1903,-0.1884,-0.1966,-0.1944,-0.1923,-0.192,-0.1884,-0.1897,-0.1981,-0.1848,-0.1847,-0.1917,-0.207,-0.1996,-0.2006,-0.193,-0.1933,-0.1935,-0.2095,0,-0.1467,-0.1535,-0.1565,-0.1677,-0.1736,-0.1796,-0.1874,-0.1956,-0.1997,-0.2062,-0.2037,-0.2064,-0.1987,-0.1989,-0.1997,-0.198,-0.2022,-0.1946,-0.1991,-0.1994,-0.1923,-0.2021,-0.1887,-0.201,-0.211,-0.2113,-0.2115,0,-0.1497,-0.1559,-0.1648,-0.1814,-0.1852,-0.1918,-0.2109,-0.2176,-0.2246,-0.2262,-0.2271,-0.2236,-0.2259,-0.2157,-0.2194,-0.2147,-0.2135,-0.2112,-0.2116,-0.2029,-0.1948,-0.1953,-0.2035,-0.2016,-0.2139,-0.2137,-0.2135,0,-0.1531,-0.1645,-0.1744,-0.1778,-0.1925,-0.2017,-0.2125,-0.2232,-0.2314,-0.2369,-0.2398,-0.241,-0.2402,-0.2386,-0.2315,-0.227,-0.235,-0.2276,-0.222,-0.2216,-0.2104,-0.2084,-0.2173,-0.2332,-0.2332,-0.2331,-0.2331,0,-0.1561,-0.165,-0.1766,-0.1807,-0.1989,-0.2084,-0.2256,-0.2336,-0.2433,-0.251,-0.2488,-0.2512,-0.245,-0.246,-0.2404,-0.2368,-0.2425,-0.2276,-0.2256,-0.2131,-0.2113,-0.2088,-0.2081,-0.2337,-0.2336,-0.2335,-0.2334,0,-0.1554,-0.1608,-0.1734,-0.1905,-0.1978,-0.2106,-0.2316,-0.242,-0.25,-0.2588,-0.2596,-0.2618,-0.2601,-0.256,-0.2541,-0.2476,-0.2401,-0.2422,-0.2297,-0.2257,-0.2149,-0.2151,-0.2228,-0.2174,-0.241,-0.2409,-0.2408,0,-0.1559,-0.1596,-0.1776,-0.185,-0.192,-0.2114,-0.2232,-0.2407,-0.2493,-0.2628,-0.2653,-0.2679,-0.262,-0.26,-0.2497,-0.2438,-0.239,-0.2314,-0.2184,-0.2168,-0.2157,-0.2149,-0.2097,-0.2098,-0.2095,-0.2093,-0.2091,0,-0.1549,-0.1578,-0.1666,-0.1788,-0.1923,-0.21,-0.2273,-0.2353,-0.2524,-0.2568,-0.2582,-0.2547,-0.2541,-0.2395,-0.2355,-0.2282,-0.2236,-0.2257,-0.2266,-0.1959,-0.1934,-0.186,-0.2009,-0.2067,-0.207,-0.2071,-0.2073,-0.2074,-0.1521,-0.1549,-0.1597,-0.1722,-0.1867,-0.1981,-0.2043,-0.2204,-0.2278,-0.2295,-0.2391,-0.2298,-0.2289,-0.2166,-0.2143,-0.2044,-0.2069,-0.1943,-0.1969,-0.1983,-0.1855,-0.1974,-0.197,-0.1971,-0.1973,-0.1974,-0.1975,0,-0.1453,-0.1449,-0.1534,-0.1625,-0.168,-0.1812,-0.198,-0.1974,-0.196,-0.206,-0.2006,-0.1967,-0.1873,-0.1909,-0.1856,-0.1783,-0.173,-0.1737,-0.1698,-0.1672,-0.1797,-0.17,-0.1604,-0.1604,-0.1604,-0.1604,-0.1605,-0.1605,-0.14,-0.1384,-0.1394,-0.1378,-0.1433,-0.1429,-0.1463,-0.1489,-0.1541,-0.1504,-0.1527,-0.1583,-0.1663,-0.1802,-0.1739,-0.1656,-0.1623,-0.1548,-0.1614,-0.1693,-0.1714,-0.1734,-0.1642,-0.1536,-0.1536,-0.1399,-0.1398,-0.1397]},{"header":{"parameterUnit":"m.s-1","parameterCategory":2,"la1":30.2991,"la2":30.254,"lo1":-89.0895,"lo2":-89.0444,"dy":0.0017,"dx":0.0017,"nx":28,"ny":28,"refTime":"2023-10-03T09:00:00:Z","depth":"0","parameterNumber":3,"parameterNumberName":"V-component_of_CURRENTS"},"data":[0,0,0,0,0,0,0,0,0,0,0,0,0,0,0,0,0,0,0,0,0,0,0,0,0,0,0,0,0,0,0,0,0,0,0,0,0,0,0,0,0,0,0,0,0,0,0,0,0,0,0,0,0,0,0,0,0,0,-0.0024,-0.0024,0,-0.0033,-0.0033,-0.0033,-0.0005,-0.0004,-0.0003,-0.0003,0.0065,0.0066,0.0067,0,0,0,0,0,0,0,0,0,0,0,0,0,0.0011,0.001,-0.0024,-0.0024,-0.0024,-0.0033,-0.0033,-0.0033,-0.0005,-0.0004,-0.0003,-0.0002,0.0064,0.0066,0.0067,0,0,0,0,0,0,0,0,0,0,0,0,0,0.0,0.001,-0.0023,-0.0013,-0.0012,-0.0033,-0.0033,-0.0033,-0.0005,-0.0004,-0.0003,-0.0002,0.0064,0.0066,0.0067,0.0058,0,0,0.0073,0.0073,0,0,0,0,0,0,0,0,0.0001,-0.0001,-0.0014,-0.0014,-0.0013,-0.0019,0.0003,0.0,-0.0005,-0.0005,-0.0003,-0.0001,0.0042,0.0045,0.0043,0.0061,0.0064,0.0073,0.0074,0.0075,0.0075,0,0,0,0,0,0,0,0.0001,-0.0,-0.0025,-0.0014,-0.0014,-0.0011,-0.0011,0.0003,0.0016,-0.0005,-0.0004,-0.0009,0.0043,0.0042,0.0045,0.0065,0.0073,0.0074,0.0075,0.0076,0.0108,0.0108,0,0,0,0,0,0,-0.0003,0.0,-0.0025,-0.0026,-0.0006,-0.0012,-0.0012,-0.0016,0.0014,0.0018,-0.001,-0.0007,0.0038,0.0043,0.0048,0.0055,0.0075,0.0076,0.0077,0.0108,0.0108,0.0108,0,0,0,0,0,0,-0.0002,-0.0005,-0.0025,-0.0015,-0.0017,-0.0014,-0.0018,-0.0017,-0.0014,0.001,0.0016,-0.0009,0.0039,0.0046,0.0061,0.0057,0.0077,0.0079,0.0109,0.0108,0.0108,0.0058,0,0,0,0,0,0,-0.0001,-0.0004,-0.0007,-0.0015,-0.0018,-0.0045,-0.002,-0.0018,-0.002,-0.0017,0.0012,0.0019,0.004,0.0058,0.0063,0.006,0.008,0.0109,0.0109,0.0108,0.006,0.0056,0.0053,0,0,0,0,0,0.0,-0.0015,-0.0007,-0.001,-0.0022,-0.0046,-0.0048,-0.004,-0.0021,-0.0031,-0.0003,0.0019,0.006,0.0059,0.0065,0.0062,0.0109,0.0109,0.0108,0.0062,0.0057,0.0053,0,0,0,0,0,0,-0.001,-0.0014,-0.0005,-0.0022,-0.0035,-0.0042,-0.0053,-0.0043,-0.0031,-0.0021,0.0012,0.002,0.0034,0.0053,0.0052,0.0071,0.009,0.009,0.0052,0.0048,0.0045,0.004,0.0082,0,0,0,0,0,-0.0012,-0.0016,-0.0027,-0.0041,-0.0049,-0.0048,-0.0055,-0.0051,-0.0044,-0.0038,-0.0016,0.0012,0.0034,0.0045,0.0065,0.007,0.0104,0.0074,0.007,0.0067,0.0067,0.0109,0.0109,0.0107,0.0107,0.0107,0,0,-0.0022,-0.0023,-0.0027,-0.0042,-0.0049,-0.0078,-0.005,-0.0067,-0.0081,-0.0032,-0.0036,-0.0001,0.0033,0.0042,0.005,0.0058,0.0087,0.0067,0.0064,0.0066,0.0108,0.0109,0.0109,0.0106,0.0106,0.0106,0,0,-0.0055,-0.0046,-0.0065,-0.0077,-0.0092,-0.0097,-0.0103,-0.0109,-0.0101,-0.0102,-0.0063,-0.003,-0.001,0.0019,0.0037,0.0025,0.0067,0.0031,0.0007,0.0046,0.0047,0.0048,0.0094,0.01,0.0028,0.0027,0.0027,0,-0.0068,-0.0085,-0.0078,-0.0106,-0.012,-0.0109,-0.0143,-0.0143,-0.014,-0.0122,-0.0109,-0.0046,-0.0019,0.0011,0.0005,0.0018,0.0048,0.0018,0.0042,0.0043,0.0045,0.0093,0.0099,0.0025,0.0025,0.0026,0.0026,0,-0.0119,-0.013,-0.0147,-0.0172,-0.0194,-0.0215,-0.0224,-0.0222,-0.0203,-0.0186,-0.0145,-0.0101,-0.0055,-0.0045,-0.0027,0.0002,0.0022,0.0033,0.0051,0.0042,0.0093,0.0101,0.0021,0.0022,0.0023,0.0024,0,0,-0.0156,-0.0174,-0.0179,-0.0194,-0.0222,-0.0247,-0.0267,-0.027,-0.0256,-0.0233,-0.0204,-0.0161,-0.011,-0.0086,-0.0046,-0.0018,0.002,0.0005,0.0008,0.0048,0.0113,0.0156,0.017,0.0032,0.0033,0.0034,0.0145,0,-0.0195,-0.0241,-0.0244,-0.0296,-0.0326,-0.0317,-0.0333,-0.033,-0.0302,-0.027,-0.0205,-0.0165,-0.0134,-0.0101,-0.0067,0.0,0.0038,-0.001,0.0119,0.0123,0.016,0.0179,0.0218,0.0322,0.0153,0.0154,0.0155,0,-0.0251,-0.0266,-0.0316,-0.0336,-0.0347,-0.0373,-0.0374,-0.0384,-0.0335,-0.0305,-0.0246,-0.0192,-0.0131,-0.0109,0.0005,-0.0028,0.0038,0.0087,0.0093,0.0156,0.018,0.0304,0.0344,0.0474,0.0168,0.0167,0.0166,0,-0.0291,-0.0322,-0.0353,-0.0365,-0.039,-0.0397,-0.0404,-0.0382,-0.0383,-0.0318,-0.03,-0.0207,-0.0163,-0.0072,0.0033,0.0021,0.0157,0.0159,0.0265,0.0269,0.0341,0.035,0.0521,0.0241,0.0241,0.024,0.024,0,-0.0344,-0.0368,-0.0363,-0.0388,-0.0419,-0.0419,-0.0437,-0.0424,-0.0393,-0.04,-0.0312,-0.0288,-0.0157,-0.0065,0.0034,0.0181,0.0168,0.0272,0.0303,0.0325,0.0331,0.0478,0.0516,0.0245,0.0244,0.0243,0.0242,0,-0.0413,-0.0397,-0.0437,-0.0443,-0.0448,-0.0474,-0.0493,-0.0501,-0.0454,-0.0461,-0.0447,-0.0347,-0.0218,-0.0072,0.0087,0.0183,0.0406,0.0373,0.0394,0.0425,0.064,0.0672,0.0868,0.0935,0.0514,0.0515,0.0517,0,-0.0457,-0.0482,-0.0499,-0.0528,-0.0536,-0.0559,-0.0585,-0.0548,-0.0562,-0.0506,-0.052,-0.0384,-0.0284,-0.0007,0.0196,0.0415,0.049,0.0563,0.0548,0.0673,0.0732,0.0756,0.0799,0.0628,0.0631,0.0633,0.0634,0,-0.0554,-0.0549,-0.0582,-0.0638,-0.0666,-0.0695,-0.0717,-0.0731,-0.0693,-0.066,-0.0587,-0.0482,-0.0203,0.0084,0.0371,0.0486,0.0666,0.0607,0.0737,0.0841,0.0879,0.0951,0.0535,0.0651,0.0649,0.0648,0.0647,0.0646,-0.0625,-0.0672,-0.0709,-0.076,-0.0789,-0.0818,-0.0824,-0.0822,-0.0804,-0.0706,-0.0637,-0.0421,-0.0007,0.0423,0.0561,0.0875,0.0817,0.0959,0.099,0.1006,0.1067,0.0689,0.0833,0.0832,0.0832,0.0831,0.0831,0,-0.0719,-0.0765,-0.0837,-0.0872,-0.0906,-0.0892,-0.0907,-0.0866,-0.0814,-0.0683,-0.0547,-0.0097,0.0311,0.0674,0.1124,0.1273,0.1285,0.1323,0.1373,0.1398,0.108,0.1081,0.1284,0.1284,0.1284,0.1284,0.1284,0.1283,-0.0771,-0.0865,-0.0898,-0.0964,-0.0973,-0.0974,-0.096,-0.0866,-0.0748,-0.0458,-0.0185,0.0021,0.0512,0.124,0.1636,0.1638,0.1755,0.1723,0.1781,0.1567,0.1535,0.1505,0.1518,0.181,0.181,0.2099,0.2102,0.2104]}],[{"header":{"parameterUnit":"m.s-1","parameterCategory":2,"la1":30.2991,"la2":30.254,"lo1":-89.0895,"lo2":-89.0444,"dy":0.0017,"dx":0.0017,"nx":28,"ny":28,"refTime":"2023-10-03T09:00:00:Z","depth":"2","parameterNumber":2,"parameterNumberName":"U-component_of_CURRENTS"},"data":[0,0,0,0,0,0,0,0,0,0,0,0,0,0,0,0,0,0,0,0,0,0,0,0,0,0,0,0,0,0,0,0,0,0,0,0,0,0,0,0,0,0,0,0,0,0,0,0,0,0,0,0,0,0,0,0,0,0,-0.129,-0.1291,0,-0.1352,-0.1352,-0.1353,-0.1329,-0.1327,-0.1326,-0.1325,-0.1265,-0.1265,-0.1264,0,0,0,0,0,0,0,0,0,0,0,0,0,-0.1145,-0.1147,-0.129,-0.1291,-0.1292,-0.1352,-0.1352,-0.1353,-0.1329,-0.1327,-0.1326,-0.1325,-0.1265,-0.1265,-0.1264,0,0,0,0,0,0,0,0,0,0,0,0,0,-0.1205,-0.1148,-0.129,-0.1289,-0.129,-0.1352,-0.1352,-0.1353,-0.1329,-0.1327,-0.1326,-0.1324,-0.1265,-0.1265,-0.1264,-0.1296,0,0,-0.1262,-0.1262,0,0,0,0,0,0,0,0,-0.1201,-0.121,-0.1288,-0.129,-0.129,-0.1333,-0.1279,-0.1329,-0.133,-0.1312,-0.1325,-0.1323,-0.128,-0.1278,-0.1291,-0.1293,-0.129,-0.1262,-0.1261,-0.1261,-0.1261,0,0,0,0,0,0,0,-0.1197,-0.1207,-0.1312,-0.129,-0.1291,-0.1284,-0.129,-0.1289,-0.1301,-0.1313,-0.1312,-0.1324,-0.1279,-0.1292,-0.1289,-0.1289,-0.1262,-0.1261,-0.1261,-0.1261,-0.1294,-0.1296,0,0,0,0,0,0,-0.1198,-0.1204,-0.131,-0.1314,-0.1243,-0.1288,-0.1295,-0.1319,-0.1303,-0.1301,-0.1325,-0.1322,-0.1294,-0.129,-0.1287,-0.1316,-0.1261,-0.126,-0.126,-0.1293,-0.1295,-0.1296,0,0,0,0,0,0,-0.1195,-0.1207,-0.1308,-0.1261,-0.1273,-0.1293,-0.132,-0.1321,-0.1332,-0.1314,-0.1308,-0.1334,-0.1293,-0.1288,-0.1287,-0.1313,-0.126,-0.1259,-0.1291,-0.1293,-0.1295,-0.1377,0,0,0,0,0,0,-0.1191,-0.1206,-0.1228,-0.1262,-0.1276,-0.1344,-0.1322,-0.1324,-0.1343,-0.134,-0.132,-0.1313,-0.1291,-0.1289,-0.1287,-0.1311,-0.1259,-0.129,-0.1292,-0.1295,-0.1373,-0.1381,-0.1389,0,0,0,0,0,-0.1185,-0.1222,-0.1229,-0.1242,-0.1305,-0.1345,-0.1352,-0.1357,-0.1346,-0.1358,-0.1343,-0.1314,-0.1303,-0.129,-0.1287,-0.1311,-0.1289,-0.1292,-0.1294,-0.1369,-0.138,-0.1389,0,0,0,0,0,0,-0.1171,-0.1225,-0.1232,-0.1284,-0.1312,-0.1342,-0.1361,-0.1365,-0.1368,-0.136,-0.1333,-0.1326,-0.1336,-0.1315,-0.1301,-0.1328,-0.129,-0.1293,-0.1348,-0.1358,-0.1366,-0.14,-0.1258,0,0,0,0,0,-0.1181,-0.1223,-0.1262,-0.1304,-0.1318,-0.1341,-0.136,-0.1365,-0.1374,-0.1374,-0.1362,-0.1349,-0.1351,-0.1345,-0.1339,-0.1357,-0.137,-0.137,-0.1378,-0.1385,-0.1412,-0.1438,-0.1452,-0.1306,-0.1306,-0.1306,0,0,-0.119,-0.1225,-0.125,-0.1304,-0.1325,-0.1355,-0.1347,-0.138,-0.1411,-0.1367,-0.1394,-0.1378,-0.1362,-0.1381,-0.1383,-0.1363,-0.144,-0.1389,-0.1396,-0.1419,-0.1443,-0.1457,-0.147,-0.1308,-0.1307,-0.1307,0,0,-0.1218,-0.1256,-0.1292,-0.1311,-0.1349,-0.1374,-0.1384,-0.1415,-0.1434,-0.1458,-0.144,-0.1446,-0.1435,-0.1443,-0.1442,-0.1496,-0.1483,-0.1483,-0.1553,-0.1578,-0.159,-0.1601,-0.1664,-0.168,-0.1486,-0.1486,-0.1486,0,-0.1221,-0.1278,-0.1307,-0.133,-0.137,-0.1382,-0.1428,-0.1447,-0.1474,-0.1518,-0.1469,-0.15,-0.1473,-0.1526,-0.1538,-0.1517,-0.1538,-0.1515,-0.159,-0.1601,-0.1611,-0.1672,-0.1689,-0.1491,-0.149,-0.149,-0.1489,0,-0.1268,-0.1304,-0.1325,-0.1372,-0.1418,-0.1457,-0.1498,-0.154,-0.1559,-0.1582,-0.1635,-0.1601,-0.1626,-0.1611,-0.1587,-0.1655,-0.1652,-0.1598,-0.1568,-0.1631,-0.1691,-0.1707,-0.1497,-0.1495,-0.1494,-0.1493,0,0,-0.1297,-0.1351,-0.1357,-0.141,-0.1451,-0.1517,-0.1572,-0.1666,-0.174,-0.1724,-0.1812,-0.1794,-0.178,-0.1779,-0.1748,-0.176,-0.1844,-0.1714,-0.1713,-0.1784,-0.1936,-0.1828,-0.1834,-0.1797,-0.1799,-0.1801,-0.196,0,-0.1328,-0.14,-0.1426,-0.1526,-0.158,-0.1629,-0.1704,-0.1784,-0.1827,-0.19,-0.1882,-0.1918,-0.1841,-0.185,-0.1857,-0.1844,-0.1885,-0.1809,-0.1859,-0.1862,-0.1762,-0.1848,-0.1664,-0.1779,-0.1976,-0.1978,-0.198,0,-0.1366,-0.1425,-0.1511,-0.1658,-0.1694,-0.1748,-0.1928,-0.1994,-0.2074,-0.2097,-0.2116,-0.209,-0.2117,-0.2017,-0.2056,-0.2009,-0.1998,-0.1976,-0.198,-0.1863,-0.1781,-0.1741,-0.18,-0.2006,-0.2004,-0.2002,-0.2001,0,-0.1408,-0.1507,-0.1603,-0.1632,-0.1764,-0.1848,-0.1942,-0.2052,-0.214,-0.2207,-0.2244,-0.2264,-0.2261,-0.2247,-0.2177,-0.2134,-0.2211,-0.2143,-0.2056,-0.205,-0.1896,-0.187,-0.2199,-0.2199,-0.2199,-0.2198,-0.2198,0,-0.1442,-0.1525,-0.1628,-0.1671,-0.1833,-0.1918,-0.2083,-0.2159,-0.2263,-0.2344,-0.2335,-0.236,-0.231,-0.232,-0.2264,-0.221,-0.2285,-0.2107,-0.2084,-0.192,-0.1896,-0.2076,-0.206,-0.2204,-0.2203,-0.2202,-0.2201,0,-0.145,-0.1502,-0.1619,-0.1771,-0.1833,-0.1948,-0.2139,-0.2245,-0.2332,-0.2425,-0.2437,-0.2465,-0.2433,-0.2398,-0.2378,-0.2312,-0.2275,-0.2241,-0.2066,-0.2017,-0.2094,-0.208,-0.2195,-0.2193,-0.2191,-0.2189,-0.2188,0,-0.1461,-0.1504,-0.1666,-0.172,-0.1777,-0.1951,-0.2061,-0.2235,-0.2321,-0.2456,-0.2482,-0.2498,-0.2414,-0.2378,-0.2271,-0.2202,-0.2235,-0.203,-0.1893,-0.2128,-0.2095,-0.2085,-0.2074,-0.1755,-0.175,-0.1746,-0.1743,0,-0.1459,-0.1494,-0.1568,-0.1654,-0.1768,-0.1933,-0.2089,-0.2166,-0.2339,-0.237,-0.2357,-0.2301,-0.228,-0.2078,-0.203,-0.1956,-0.2016,-0.1943,-0.2259,-0.1752,-0.1715,-0.1682,-0.1686,-0.1707,-0.1711,-0.1713,-0.1715,-0.1717,-0.1424,-0.1451,-0.1485,-0.1565,-0.1688,-0.1793,-0.1848,-0.1982,-0.2035,-0.2034,-0.2126,-0.1989,-0.2006,-0.176,-0.1694,-0.166,-0.1769,-0.1691,-0.1703,-0.172,-0.1607,-0.1565,-0.1512,-0.1515,-0.1517,-0.1519,-0.152,0,-0.1345,-0.1345,-0.1394,-0.1449,-0.1486,-0.1616,-0.1767,-0.1757,-0.1698,-0.1772,-0.1695,-0.1498,-0.1393,-0.1432,-0.1317,-0.1307,-0.1291,-0.1258,-0.1235,-0.127,-0.1301,-0.1167,-0.0957,-0.0955,-0.0954,-0.0953,0,0,-0.1288,-0.1261,-0.126,-0.1199,-0.1235,-0.1238,-0.1269,-0.1267,-0.1297,-0.119,-0.1152,-0.1262,-0.1347,-0.1135,-0.1103,-0.1014,-0.1124,-0.096,-0.1406,-0.1409,-0.1438,-0.1539,-0.1369,0,0,0,0,0]},{"header":{"parameterUnit":"m.s-1","parameterCategory":2,"la1":30.2991,"la2":30.254,"lo1":-89.0895,"lo2":-89.0444,"dy":0.0017,"dx":0.0017,"nx":28,"ny":28,"refTime":"2023-10-03T09:00:00:Z","depth":"2","parameterNumber":3,"parameterNumberName":"V-component_of_CURRENTS"},"data":[0,0,0,0,0,0,0,0,0,0,0,0,0,0,0,0,0,0,0,0,0,0,0,0,0,0,0,0,0,0,0,0,0,0,0,0,0,0,0,0,0,0,0,0,0,0,0,0,0,0,0,0,0,0,0,0,0,0,-0.0065,-0.0066,0,-0.0079,-0.0079,-0.0079,-0.0052,-0.0051,-0.005,-0.005,0.0013,0.0014,0.0015,0,0,0,0,0,0,0,0,0,0,0,0,0,-0.0027,-0.0027,-0.0065,-0.0066,-0.0066,-0.0079,-0.0079,-0.0079,-0.0052,-0.0051,-0.005,-0.0049,0.0013,0.0014,0.0015,0,0,0,0,0,0,0,0,0,0,0,0,0,-0.004,-0.0028,-0.0065,-0.0056,-0.0055,-0.0079,-0.0079,-0.0079,-0.0052,-0.0051,-0.005,-0.0049,0.0013,0.0014,0.0016,0.0004,0,0,0.002,0.0021,0,0,0,0,0,0,0,0,-0.004,-0.0041,-0.0057,-0.0056,-0.0056,-0.0065,-0.0043,-0.0048,-0.0052,-0.0051,-0.005,-0.0048,-0.0008,-0.0005,-0.0007,0.0007,0.001,0.002,0.0021,0.0022,0.0022,0,0,0,0,0,0,0,-0.0039,-0.0041,-0.0069,-0.0057,-0.0057,-0.0055,-0.0055,-0.0044,-0.0032,-0.0051,-0.005,-0.0055,-0.0006,-0.0009,-0.0006,0.001,0.002,0.0022,0.0023,0.0023,0.0052,0.0051,0,0,0,0,0,0,-0.0042,-0.004,-0.0068,-0.0069,-0.0047,-0.0056,-0.0057,-0.0061,-0.0034,-0.003,-0.0056,-0.0054,-0.0012,-0.0007,-0.0003,0.0005,0.0022,0.0023,0.0024,0.0052,0.0052,0.0051,0,0,0,0,0,0,-0.0041,-0.0044,-0.0068,-0.0057,-0.006,-0.0058,-0.0063,-0.0062,-0.006,-0.0039,-0.0032,-0.0055,-0.0011,-0.0005,0.0009,0.0008,0.0024,0.0026,0.0052,0.0052,0.0052,0.001,0,0,0,0,0,0,-0.004,-0.0044,-0.0047,-0.0057,-0.0061,-0.0088,-0.0065,-0.0063,-0.0066,-0.0063,-0.0036,-0.0029,-0.001,0.0006,0.0011,0.001,0.0027,0.0052,0.0052,0.0052,0.0011,0.0008,0.0005,0,0,0,0,0,-0.0039,-0.0054,-0.0047,-0.0051,-0.0065,-0.0089,-0.0091,-0.0085,-0.0067,-0.0076,-0.0051,-0.003,0.0008,0.0007,0.0012,0.0012,0.0052,0.0052,0.0052,0.0012,0.0009,0.0005,0,0,0,0,0,0,-0.0048,-0.0053,-0.0046,-0.0064,-0.0076,-0.0086,-0.0096,-0.0088,-0.0077,-0.0068,-0.0037,-0.003,-0.0015,0.0001,0.0,0.002,0.0035,0.0036,0.0004,0.0,-0.0003,-0.0006,0.0028,0,0,0,0,0,-0.0051,-0.0056,-0.0067,-0.0082,-0.009,-0.0091,-0.0098,-0.0095,-0.0089,-0.0084,-0.0063,-0.0037,-0.0016,-0.0005,0.0012,0.0018,0.0052,0.0023,0.002,0.0017,0.0018,0.0061,0.0062,0.005,0.005,0.005,0,0,-0.0061,-0.0063,-0.0067,-0.0083,-0.0091,-0.0114,-0.0092,-0.011,-0.012,-0.0078,-0.0079,-0.0049,-0.0017,-0.0008,0.0001,0.0008,0.004,0.0017,0.0014,0.0017,0.006,0.0061,0.0063,0.005,0.005,0.005,0,0,-0.009,-0.0085,-0.0102,-0.0112,-0.0126,-0.0131,-0.0137,-0.0144,-0.0138,-0.0139,-0.0104,-0.0073,-0.0055,-0.0027,-0.001,-0.0019,0.0023,-0.0014,-0.0033,0.0008,0.0009,0.0011,0.0063,0.007,-0.0016,-0.0017,-0.0017,0,-0.0104,-0.0115,-0.0114,-0.0135,-0.0148,-0.0141,-0.017,-0.017,-0.0168,-0.0157,-0.0144,-0.0087,-0.0062,-0.0032,-0.0036,-0.0025,0.0007,-0.0023,0.0004,0.0006,0.0009,0.0062,0.007,-0.0019,-0.0018,-0.0018,-0.0018,0,-0.0145,-0.015,-0.0164,-0.0182,-0.0206,-0.0223,-0.0234,-0.0236,-0.0222,-0.0208,-0.0174,-0.0132,-0.0091,-0.008,-0.0063,-0.0032,-0.0011,-0.0005,0.0012,0.0007,0.0064,0.0073,-0.0022,-0.0021,-0.002,-0.002,0,0,-0.0187,-0.0188,-0.0192,-0.0204,-0.0225,-0.0255,-0.0271,-0.0279,-0.0269,-0.0247,-0.0224,-0.0182,-0.0138,-0.0115,-0.0077,-0.0045,-0.0,-0.0024,-0.0021,0.0026,0.01,0.013,0.0143,0.0009,0.001,0.0011,0.0135,0,-0.0215,-0.0246,-0.0246,-0.029,-0.0313,-0.0311,-0.0327,-0.0332,-0.0309,-0.0283,-0.0223,-0.0186,-0.0157,-0.0127,-0.009,-0.0021,0.002,-0.0034,0.01,0.0104,0.013,0.0153,0.0132,0.0243,0.0144,0.0146,0.0147,0,-0.0265,-0.027,-0.0308,-0.0327,-0.0339,-0.0364,-0.038,-0.039,-0.0347,-0.0322,-0.0266,-0.0213,-0.0149,-0.0129,-0.0007,-0.0043,0.0024,0.0076,0.0082,0.013,0.015,0.0231,0.0263,0.0162,0.0161,0.016,0.0159,0,-0.0311,-0.0324,-0.035,-0.0358,-0.0378,-0.0394,-0.0406,-0.0393,-0.0397,-0.0335,-0.0316,-0.0223,-0.0175,-0.0083,0.0029,0.0012,0.0164,0.0159,0.0255,0.0259,0.0279,0.0282,0.0245,0.0245,0.0244,0.0244,0.0244,0,-0.0358,-0.0379,-0.0362,-0.0384,-0.042,-0.0423,-0.045,-0.0443,-0.0412,-0.0412,-0.033,-0.0292,-0.0166,-0.0064,0.0034,0.0183,0.0178,0.0265,0.0294,0.0264,0.0264,0.0219,0.0214,0.0249,0.0248,0.0247,0.0246,0,-0.0436,-0.0407,-0.0441,-0.0442,-0.045,-0.0484,-0.0509,-0.0518,-0.0473,-0.0467,-0.0451,-0.0339,-0.0201,-0.0061,0.0105,0.0191,0.0328,0.0379,0.0343,0.0366,0.0394,0.0386,0.0502,0.0504,0.0506,0.0508,0.0509,0,-0.048,-0.05,-0.0509,-0.0532,-0.0538,-0.0569,-0.0596,-0.0566,-0.0572,-0.0495,-0.0496,-0.0353,-0.0245,0.0029,0.0206,0.0409,0.039,0.0499,0.0461,0.0404,0.0422,0.041,0.04,0.0479,0.048,0.0481,0.0481,0,-0.058,-0.0572,-0.0595,-0.0632,-0.066,-0.0695,-0.0714,-0.0721,-0.0675,-0.0624,-0.052,-0.0411,-0.016,0.0076,0.0329,0.0432,0.0465,0.0521,0.0487,0.0408,0.039,0.0404,0.0393,0.0488,0.0487,0.0487,0.0486,0.0486,-0.0651,-0.0694,-0.071,-0.0743,-0.0769,-0.0795,-0.0805,-0.0781,-0.0742,-0.0625,-0.0542,-0.0344,-0.0135,0.0241,0.0409,0.0552,0.0544,0.058,0.0575,0.0569,0.0535,0.052,0.0638,0.0638,0.0638,0.0638,0.0638,0,-0.0749,-0.0782,-0.083,-0.0846,-0.0871,-0.0864,-0.087,-0.0828,-0.074,-0.0609,-0.0462,-0.0228,0.004,0.0243,0.0488,0.0635,0.06,0.0642,0.0576,0.0569,0.0563,0.0525,0.0628,0.0628,0.0628,0.0628,0,0,-0.0803,-0.0883,-0.0897,-0.093,-0.0929,-0.0939,-0.0926,-0.0818,-0.0706,-0.0521,-0.0366,-0.0172,0.0066,0.0239,0.0416,0.0535,0.0507,0.0532,0.0529,0.0424,0.0417,0.052,0.0453,0,0,0,0,0]}],[{"header":{"parameterUnit":"m.s-1","parameterCategory":2,"la1":30.2991,"la2":30.254,"lo1":-89.0895,"lo2":-89.0444,"dy":0.0017,"dx":0.0017,"nx":28,"ny":28,"refTime":"2023-10-03T09:00:00:Z","depth":"4","parameterNumber":2,"parameterNumberName":"U-component_of_CURRENTS"},"data":[0,0,0,0,0,0,0,0,0,0,0,0,0,0,0,0,0,0,0,0,0,0,0,0,0,0,0,0,0,0,0,0,0,0,0,0,0,0,0,0,0,0,0,0,0,0,0,0,0,0,0,0,0,0,0,0,0,0,-0.0512,-0.0512,0,-0.0525,-0.0525,-0.0526,-0.0557,-0.0557,-0.0558,-0.0559,-0.063,-0.0631,-0.0632,0,0,0,0,0,0,0,0,0,0,0,0,0,-0.0522,-0.0521,-0.0512,-0.0512,-0.0512,-0.0525,-0.0525,-0.0526,-0.0557,-0.0557,-0.0558,-0.0559,-0.063,-0.0631,-0.0633,0,0,0,0,0,0,0,0,0,0,0,0,0,-0.0524,-0.0521,-0.0512,-0.0529,-0.0531,-0.0525,-0.0525,-0.0526,-0.0557,-0.0558,-0.0558,-0.0559,-0.0629,-0.0631,-0.0633,-0.0625,0,0,-0.0639,-0.0639,0,0,0,0,0,0,0,0,-0.0524,-0.0524,-0.0527,-0.0528,-0.053,-0.0541,-0.0555,-0.0562,-0.0556,-0.0547,-0.0559,-0.056,-0.0605,-0.0609,-0.0608,-0.0628,-0.0631,-0.0639,-0.064,-0.0641,-0.0641,0,0,0,0,0,0,0,-0.0524,-0.0523,-0.0517,-0.0527,-0.0529,-0.054,-0.0541,-0.0556,-0.0571,-0.0548,-0.055,-0.0551,-0.0606,-0.0606,-0.061,-0.0632,-0.0639,-0.064,-0.0642,-0.0642,-0.0653,-0.0653,0,0,0,0,0,0,-0.0521,-0.0523,-0.0517,-0.0517,-0.053,-0.0539,-0.054,-0.0536,-0.057,-0.0575,-0.055,-0.0553,-0.0602,-0.0608,-0.0613,-0.0621,-0.0641,-0.0643,-0.0644,-0.0654,-0.0653,-0.0652,0,0,0,0,0,0,-0.0521,-0.052,-0.0516,-0.0521,-0.0522,-0.0537,-0.0533,-0.0536,-0.0544,-0.0571,-0.0578,-0.0557,-0.0603,-0.061,-0.0616,-0.0624,-0.0643,-0.0645,-0.0655,-0.0654,-0.0653,-0.0628,0,0,0,0,0,0,-0.0521,-0.0519,-0.0519,-0.0521,-0.0521,-0.0513,-0.0532,-0.0535,-0.0543,-0.0547,-0.0579,-0.0586,-0.0605,-0.0613,-0.0618,-0.0627,-0.0647,-0.0656,-0.0655,-0.0653,-0.063,-0.0627,-0.0623,0,0,0,0,0,-0.0521,-0.0519,-0.0518,-0.0518,-0.0518,-0.0513,-0.0514,-0.0529,-0.0543,-0.0542,-0.0554,-0.0585,-0.0607,-0.0613,-0.062,-0.063,-0.0657,-0.0655,-0.0653,-0.0632,-0.0627,-0.0623,0,0,0,0,0,0,-0.0528,-0.0522,-0.0521,-0.0519,-0.0515,-0.0519,-0.0528,-0.0529,-0.0537,-0.0548,-0.0571,-0.0578,-0.0589,-0.0603,-0.0609,-0.0625,-0.0639,-0.0638,-0.062,-0.0616,-0.0613,-0.0674,-0.0648,0,0,0,0,0,-0.0526,-0.0523,-0.0515,-0.0515,-0.0516,-0.052,-0.0523,-0.0526,-0.0532,-0.0538,-0.0551,-0.0568,-0.0583,-0.0594,-0.0607,-0.0612,-0.069,-0.0622,-0.0618,-0.0615,-0.0667,-0.0757,-0.0769,-0.0646,-0.0646,-0.0646,0,0,-0.0523,-0.0526,-0.052,-0.0516,-0.0522,-0.0515,-0.0525,-0.0529,-0.053,-0.0545,-0.0552,-0.0558,-0.058,-0.0586,-0.0593,-0.0601,-0.0687,-0.0613,-0.061,-0.0665,-0.0757,-0.077,-0.0781,-0.0645,-0.0645,-0.0645,0,0,-0.0536,-0.0526,-0.0535,-0.0525,-0.053,-0.0521,-0.052,-0.0516,-0.0528,-0.0522,-0.0536,-0.0544,-0.0557,-0.0574,-0.0587,-0.0571,-0.0664,-0.057,-0.0608,-0.0692,-0.0705,-0.0717,-0.0827,-0.0849,-0.0569,-0.0569,-0.0569,0,-0.054,-0.0548,-0.0536,-0.0542,-0.0546,-0.0522,-0.0532,-0.0522,-0.0516,-0.0551,-0.0525,-0.0574,-0.0559,-0.0611,-0.059,-0.0569,-0.0653,-0.0621,-0.0693,-0.0707,-0.072,-0.083,-0.0855,-0.0567,-0.0567,-0.0568,-0.0568,0,-0.0553,-0.056,-0.0567,-0.0561,-0.0557,-0.0558,-0.0542,-0.0545,-0.0545,-0.0554,-0.0603,-0.0583,-0.0637,-0.06,-0.0587,-0.0666,-0.0708,-0.0679,-0.0715,-0.0732,-0.0845,-0.0871,-0.0565,-0.0566,-0.0566,-0.0567,0,0,-0.0544,-0.0576,-0.0579,-0.0595,-0.0572,-0.0573,-0.058,-0.0606,-0.0657,-0.063,-0.0723,-0.0683,-0.0708,-0.0725,-0.0709,-0.0749,-0.0861,-0.0756,-0.076,-0.0886,-0.1101,-0.092,-0.0933,-0.086,-0.0864,-0.0867,-0.1143,0,-0.0563,-0.0615,-0.0612,-0.0626,-0.0639,-0.0631,-0.0657,-0.0674,-0.0692,-0.076,-0.077,-0.0829,-0.0746,-0.0786,-0.0814,-0.087,-0.0933,-0.0793,-0.105,-0.1059,-0.0913,-0.0956,-0.0881,-0.1163,-0.1169,-0.1174,-0.1177,0,-0.0567,-0.0602,-0.0669,-0.0705,-0.0716,-0.0724,-0.0794,-0.0811,-0.089,-0.0922,-0.0983,-0.1003,-0.1076,-0.0986,-0.1133,-0.1062,-0.1096,-0.1114,-0.1125,-0.0998,-0.0927,-0.1142,-0.1226,-0.1222,-0.1219,-0.1215,-0.1212,0,-0.0592,-0.0626,-0.0705,-0.0706,-0.0746,-0.0799,-0.082,-0.0887,-0.0927,-0.1051,-0.1106,-0.1205,-0.1268,-0.1337,-0.1285,-0.128,-0.1424,-0.1429,-0.1313,-0.1303,-0.1399,-0.1384,-0.1554,-0.1553,-0.1553,-0.1552,-0.1551,0,-0.0606,-0.0635,-0.0732,-0.0761,-0.0837,-0.0858,-0.095,-0.0994,-0.1083,-0.1106,-0.1207,-0.1222,-0.1357,-0.1398,-0.1395,-0.14,-0.1519,-0.1364,-0.1364,-0.1377,-0.1356,-0.1419,-0.14,-0.1562,-0.156,-0.1558,-0.1556,0,-0.0602,-0.0673,-0.075,-0.0844,-0.0859,-0.0927,-0.098,-0.1008,-0.1132,-0.1176,-0.1221,-0.1321,-0.1415,-0.1476,-0.1588,-0.152,-0.1543,-0.1491,-0.1511,-0.1501,-0.1387,-0.1363,-0.1565,-0.1561,-0.1558,-0.1555,-0.1553,0,-0.0593,-0.0646,-0.0808,-0.0856,-0.0898,-0.0968,-0.0965,-0.1027,-0.1015,-0.1138,-0.1119,-0.129,-0.1324,-0.1431,-0.1457,-0.1559,-0.148,-0.1521,-0.1471,-0.141,-0.1391,-0.1372,-0.1354,-0.1547,-0.1546,-0.1545,-0.1545,0,-0.0534,-0.0649,-0.0756,-0.0884,-0.0911,-0.0915,-0.0912,-0.0904,-0.0927,-0.1027,-0.1069,-0.1155,-0.1265,-0.1376,-0.1428,-0.1433,-0.1532,-0.1487,-0.1498,-0.1452,-0.139,-0.1371,-0.1356,-0.1533,-0.1534,-0.1536,-0.1536,0,-0.0493,-0.059,-0.0769,-0.0878,-0.0916,-0.0866,-0.087,-0.0832,-0.0853,-0.095,-0.0912,-0.1087,-0.1206,-0.1298,-0.1276,-0.1346,-0.1401,-0.1374,-0.1391,-0.1405,-0.1202,-0.109,-0.118,0,0,0,0,0,-0.0389,-0.0527,-0.0683,-0.0823,-0.0877,-0.0864,-0.0809,-0.0789,-0.0761,-0.0778,-0.0879,-0.0951,-0.1081,-0.1138,-0.1207,-0.1212,-0.1382,-0.1274,-0.1353,-0.1467,-0.1481,-0.1242,0,0,0,0,0,0,-0.0341,-0.0495,-0.0676,-0.0749,-0.0802,-0.0776,-0.0727,-0.0704,-0.0727,-0.076,-0.0864,-0.0909,-0.1075,-0.1101,-0.1213,-0.1228,-0.1256,-0.136,-0.1357,-0.1459,-0.1472,-0.1483,-0.1242,0,0,0,0,0]},{"header":{"parameterUnit":"m.s-1","parameterCategory":2,"la1":30.2991,"la2":30.254,"lo1":-89.0895,"lo2":-89.0444,"dy":0.0017,"dx":0.0017,"nx":28,"ny":28,"refTime":"2023-10-03T09:00:00:Z","depth":"4","parameterNumber":3,"parameterNumberName":"V-component_of_CURRENTS"},"data":[0,0,0,0,0,0,0,0,0,0,0,0,0,0,0,0,0,0,0,0,0,0,0,0,0,0,0,0,0,0,0,0,0,0,0,0,0,0,0,0,0,0,0,0,0,0,0,0,0,0,0,0,0,0,0,0,0,0,0.0232,0.0233,0,0.0301,0.0302,0.0302,0.0308,0.0308,0.0307,0.0307,0.0316,0.0317,0.0317,0,0,0,0,0,0,0,0,0,0,0,0,0,0.0122,0.0123,0.0231,0.0233,0.0234,0.0301,0.0302,0.0303,0.0308,0.0307,0.0307,0.0306,0.0316,0.0317,0.0317,0,0,0,0,0,0,0,0,0,0,0,0,0,0.0175,0.0124,0.0231,0.0247,0.025,0.0301,0.0302,0.0303,0.0308,0.0307,0.0307,0.0306,0.0316,0.0316,0.0317,0.0337,0,0,0.0321,0.0321,0,0,0,0,0,0,0,0,0.0172,0.0178,0.0244,0.0246,0.0249,0.0298,0.0267,0.0312,0.0308,0.0282,0.0307,0.0306,0.0307,0.0309,0.0319,0.0337,0.0338,0.0321,0.0321,0.0322,0.0322,0,0,0,0,0,0,0,0.0168,0.0176,0.0256,0.0245,0.0248,0.0258,0.0264,0.0276,0.0294,0.0285,0.0286,0.0299,0.0308,0.0319,0.032,0.0338,0.0321,0.0321,0.0322,0.0322,0.0365,0.0366,0,0,0,0,0,0,0.0166,0.0172,0.0254,0.0258,0.0212,0.026,0.0267,0.028,0.0295,0.0298,0.03,0.03,0.0317,0.0318,0.032,0.0367,0.0322,0.0323,0.0323,0.0365,0.0366,0.0366,0,0,0,0,0,0,0.0164,0.0173,0.0251,0.0219,0.023,0.0263,0.0278,0.0282,0.0299,0.0308,0.0309,0.0313,0.0317,0.0318,0.0328,0.0366,0.0323,0.0324,0.0364,0.0365,0.0366,0.0445,0,0,0,0,0,0,0.016,0.0172,0.0179,0.0219,0.0232,0.0286,0.0279,0.0284,0.031,0.031,0.032,0.032,0.0316,0.0327,0.0329,0.0366,0.0325,0.0364,0.0365,0.0366,0.0442,0.0448,0.0454,0,0,0,0,0,0.0156,0.0177,0.0179,0.0189,0.0242,0.0287,0.0295,0.0313,0.0311,0.0324,0.0323,0.032,0.0335,0.0328,0.0331,0.0369,0.0363,0.0364,0.0366,0.0439,0.0447,0.0454,0,0,0,0,0,0,0.0132,0.0181,0.0184,0.0217,0.0249,0.029,0.0312,0.032,0.0332,0.0332,0.0328,0.0328,0.0352,0.0342,0.0334,0.0381,0.0349,0.0351,0.0404,0.0411,0.0417,0.0384,0.0326,0,0,0,0,0,0.013,0.0158,0.0201,0.0225,0.0248,0.0279,0.03,0.0313,0.0333,0.0339,0.0343,0.0346,0.0361,0.0369,0.0373,0.0401,0.0386,0.0424,0.0431,0.0436,0.0408,0.042,0.0425,0.037,0.037,0.037,0,0,0.0121,0.0158,0.0167,0.0221,0.0251,0.0287,0.0289,0.0331,0.0361,0.0338,0.0371,0.0369,0.037,0.04,0.0411,0.0398,0.0451,0.0438,0.0443,0.0411,0.0422,0.0428,0.0432,0.0371,0.0371,0.0371,0,0,0.0139,0.0159,0.0195,0.0228,0.0283,0.03,0.0314,0.0357,0.038,0.0418,0.0402,0.0412,0.0445,0.0443,0.0451,0.0491,0.0482,0.0501,0.0513,0.0527,0.0532,0.0535,0.0558,0.0563,0.0508,0.0508,0.0508,0,0.0124,0.0174,0.021,0.026,0.0284,0.0307,0.0344,0.0379,0.0413,0.0413,0.0439,0.0454,0.0468,0.0481,0.0498,0.0508,0.0507,0.0494,0.0537,0.054,0.0542,0.0564,0.0568,0.0512,0.0511,0.0511,0.051,0,0.017,0.0211,0.024,0.03,0.0331,0.0365,0.0415,0.0428,0.0457,0.0474,0.0502,0.0526,0.051,0.0549,0.0545,0.0561,0.0554,0.0546,0.0521,0.0553,0.0574,0.0577,0.0517,0.0516,0.0515,0.0514,0,0,0.013,0.0245,0.0252,0.0265,0.0351,0.0357,0.0419,0.0444,0.042,0.0504,0.0497,0.0565,0.054,0.0542,0.0545,0.0578,0.0628,0.0568,0.0567,0.0596,0.0662,0.0594,0.0591,0.0629,0.0629,0.0629,0.0683,0,0.0147,0.0219,0.0286,0.0318,0.0346,0.0382,0.0401,0.0423,0.0452,0.0444,0.0512,0.0505,0.0554,0.0532,0.058,0.0599,0.0632,0.0613,0.0619,0.0619,0.0559,0.0591,0.0629,0.0685,0.0686,0.0687,0.0687,0,0.0164,0.0206,0.0256,0.0279,0.0289,0.0298,0.0272,0.0296,0.0314,0.0338,0.037,0.0401,0.0458,0.0492,0.0582,0.0566,0.0602,0.0646,0.0649,0.0546,0.0554,0.0637,0.0692,0.0692,0.0691,0.0691,0.0691,0,0.0081,0.0165,0.0185,0.0206,0.0251,0.0242,0.0232,0.0238,0.023,0.0245,0.0243,0.0317,0.0345,0.0431,0.052,0.0551,0.0609,0.0663,0.0644,0.0641,0.0653,0.0647,0.0703,0.0703,0.0703,0.0703,0.0702,0,0.0062,0.007,0.0128,0.0133,0.0076,0.0139,0.0069,0.0066,0.0077,0.0062,0.0151,0.0166,0.0329,0.0391,0.0487,0.0558,0.0581,0.0634,0.0641,0.069,0.0688,0.0657,0.0651,0.0705,0.0704,0.0704,0.0703,0,-0.0015,0.0043,0.004,0.0061,0.0045,-0.0012,-0.0035,-0.0073,-0.0062,-0.0065,-0.0053,0.0056,0.016,0.029,0.0419,0.0493,0.0573,0.0575,0.0598,0.0608,0.0624,0.0621,0.062,0.0618,0.0616,0.0614,0.0613,0,-0.0032,-0.0031,-0.0052,-0.0091,-0.0083,-0.0146,-0.0179,-0.0161,-0.0156,-0.0125,-0.0106,-0.0028,0.0061,0.0191,0.0328,0.0484,0.0497,0.0536,0.0615,0.0603,0.0611,0.0612,0.0612,0.061,0.061,0.0609,0.0609,0,-0.0079,-0.0096,-0.0122,-0.0215,-0.0255,-0.028,-0.0299,-0.03,-0.0244,-0.0232,-0.0163,-0.0074,0.0024,0.018,0.0251,0.0373,0.0526,0.0519,0.0527,0.0602,0.0591,0.0602,0.0604,0.0602,0.0603,0.0604,0.0604,0,-0.0136,-0.0197,-0.0254,-0.0348,-0.0394,-0.0379,-0.0375,-0.033,-0.0319,-0.0225,-0.0214,-0.0099,-0.0018,0.0117,0.0195,0.0289,0.0369,0.0427,0.0441,0.0449,0.0378,0.0338,0.0267,0,0,0,0,0,-0.0166,-0.0268,-0.0375,-0.0452,-0.0492,-0.0502,-0.0437,-0.039,-0.0312,-0.027,-0.0236,-0.0143,0.0002,0.0063,0.0153,0.0193,0.0384,0.0301,0.0458,0.0567,0.0575,0.0513,0,0,0,0,0,0,-0.0197,-0.0314,-0.0403,-0.0514,-0.0576,-0.0579,-0.0518,-0.0442,-0.0392,-0.0319,-0.024,-0.0177,-0.0033,-0.0093,0.0116,0.0149,0.0257,0.0374,0.0375,0.0563,0.057,0.0576,0.0515,0,0,0,0,0]}]]